Current Version              Previous Version:    01  02  03  04  05  06  07  08  09  10  11  12  13  14  15  16  17  18  19  20  21  22  23  24  25  26  27  28  29  30  
   31  32  33  34  35  36  37  38  39  40  41  42  43  44  45  46  47  48  49  50  51  52  53  54  55  56  57  58  59  60  

[Printable]
085
ASUS44 KFWD 210415
RWRTX
NORTH TEXAS HOURLY WEATHER ROUNDUP
NATIONAL WEATHER SERVICE FORT WORTH TX
1000 PM CST SAT DEC 20 2014

NOTE: "FAIR" INDICATES FEW OR NO CLOUDS BELOW 12,000 FEET WITH NO
SIGNIFICANT WEATHER AND/OR OBSTRUCTIONS TO VISIBILITY.

TXZ118-119-210500-
DALLAS/FORT WORTH METROPLEX

CITY           SKY/WX    TMP DP  RH WIND       PRES   REMARKS
DFW AIRPORT    CLOUDY    47  43  86 CALM      30.18S
DALLAS LOVE    CLOUDY    48  44  86 E6        30.19S
FTW MEACHAM    CLOUDY    48  43  82 E5        30.18S HAZE
DAL-EXECUTIVE  CLOUDY    49  44  83 E6        30.17F
FTW-ALLIANCE   CLOUDY    46  43  89 SE7       30.18S
FTW-SPINKS     CLOUDY    47  44  89 CALM      30.20S FOG
ARLINGTON      CLOUDY    49  42  77 CALM      30.18F
GRAND PRAIRIE  CLOUDY   N/A N/A N/A MISG      30.20S
ADDISON        CLOUDY    48  48 100 E5        30.20S
MESQUITE       CLOUDY    47  45  92 CALM      30.20S
LANCASTER      CLOUDY    46  43  89 CALM      30.20S
$$

TXZ091>094-102>105-117-120-121-131>134-210500-
NORTH CENTRAL TEXAS

CITY           SKY/WX    TMP DP  RH WIND       PRES   REMARKS
SHRMAN/DENISON CLOUDY    46  45  97 CALM      30.20R
GAINESVILLE    CLOUDY    44  41  90 SE5       30.20R
BOWIE          CLOUDY    44  42  95 SE3       30.17S
BRIDGEPORT     CLOUDY    46  43  91 SE5       30.19S
DECATUR        CLOUDY    44  44  98 SE5       30.17S FOG
DENTON         CLOUDY    46  43  89 SE5       30.19R
MCKINNEY       CLOUDY    46  44  93 CALM      30.20R
GREENVILLE     CLOUDY    46  43  87 CALM      30.20S
ROCKWALL       CLOUDY    47  45  95 CALM      30.19R FOG
TERRELL        CLOUDY    49  45  86 CALM      30.20R
WAXAHACHIE     CLOUDY    46  46 100 E3        30.20S FOG
CLEBURNE       CLOUDY    46  46 100 SE5       30.19S
GRANBURY       CLOUDY    48  44  85 SE6       30.19S
$$

TXZ083>090-098>101-113>116-127>130-139>142-154-155-210500-
WESTERN NORTH TEXAS

CITY           SKY/WX    TMP DP  RH WIND       PRES   REMARKS
WICHITA FALLS  CLOUDY    44  40  85 SE8       30.15S WCI  39
WF-KICKAPOO    CLOUDY    45  40  82 SE6       30.17S
VERNON         PTCLDY    43  38  83 SE8       30.13S WCI  38
ABILENE        CLOUDY    47  40  76 SE16      30.12R
ABILENE-DYESS  CLOUDY    46  39  74 S12       30.11S
BRECKENRIDGE   CLOUDY    49  41  73 SE8       30.13S
GRAHAM         CLOUDY    46  42  86 SE3       30.15R
MINERAL WELLS  CLOUDY    46  41  82 SE7       30.16S
STEPHENVILLE   CLOUDY    46  42  85 SE5       30.18F
COMANCHE       CLOUDY    46  42  86 SE7       30.15S
BROWNWOOD      MOCLDY    41  39  93 MISG      30.15S
COLEMAN        PTCLDY    43  41  93 SE5       30.15R
BRADY          CLEAR     39  39 100 E5        30.12R WCI  36
$$

TXZ143>147-156>162-174-175-210500-
CENTRAL TEXAS

CITY           SKY/WX    TMP DP  RH WIND       PRES   REMARKS
WACO           CLOUDY    48  45  89 E5        30.18F
WACO-TSTC      CLOUDY    48  46  93 CALM      30.19F
WACO-MCGREGOR  CLOUDY    48  43  81 SE6       30.19F
HILLSBORO      CLOUDY    47  45  90 E3        30.18F FOG
CORSICANA      CLOUDY    50  44  80 S7        30.21R
MEXIA          CLOUDY    48  44  86 E5        30.19R
HEARNE         CLOUDY    49  45  86 E6        30.21S
CAMERON        CLOUDY    51  47  88 SE5       30.19F
TEMPLE         CLOUDY    48  43  81 E5        30.17F
KILLEEN        CLOUDY    47  46  95 SE6       30.17S
KILLEEN-SKYLRK CLOUDY    48  41  76 SE5       30.16F
FORT HOOD      CLOUDY    48  46  93 SE6       30.17S
GATESVILLE     MOCLDY    48  46  93 CALM      30.20S
HAMILTON       CLOUDY    47  46  95 SE9       30.17S
$$

TXZ095>097-106>112-122>126-135>138-148>153-164>167-210500-
EAST TEXAS

CITY           SKY/WX    TMP DP  RH WIND       PRES   REMARKS
PARIS          CLOUDY    46  43  87 E6        30.20F
SULPHUR SPRNGS CLOUDY    47  45  91 E3        30.22R
MOUNT PLEASANT CLOUDY    47  44  90 CALM      30.22S
MINEOLA        MOCLDY    46  46 100 CALM      30.21S FOG
TYLER          MOCLDY    47  43  86 E5        30.19S
LONGVIEW       CLEAR     42  39  89 CALM      30.20S FOG
MARSHALL       CLOUDY    41  39  93 CALM      30.24R VSB 1/4
ATHENS         CLEAR     41  41 100 CALM      30.18S
PALESTINE      CLOUDY    45  44  98 CALM      30.21R FOG
JACKSONVILLE   CLEAR     44  43  97 E3        30.21S
HENDERSON      CLEAR     39  39 100 CALM      30.22R FOG
NACOGDOCHES    CLOUDY    43  39  87 E3        30.20F
LUFKIN         PTCLDY    46  41  82 NE3       30.20S
$$

SUPPLEMENTAL OBSERVATIONS (CENTRAL)

CITY           SKY/WX    TMP DP  RH WIND       PRES   REMARKS
LAKE TEXOMA      N/A     46  41  81 SE2         N/A
PAT MAYSE LAKE   N/A     45  41  87 CALM        N/A
ATHENS           N/A     43  39  87 NE1         N/A
MCGREGOR         N/A     48  43  81 S2          N/A
$$

SUPPLEMENTAL OBSERVATIONS (WEST)

CITY           SKY/WX    TMP DP  RH WIND       PRES   REMARKS
MILLERS CREEK    N/A     43  37  81 E7          N/A  WCI  39
HAMBY            N/A     46  39  76 SE10        N/A
IVIE RESERVOIR   N/A     43  37  81 E6          N/A  WCI  39
COLORADO BEND    N/A     46  41  81 S3          N/A
$$

SUPPLEMENTAL OBSERVATIONS (EAST)

CITY           SKY/WX    TMP DP  RH WIND       PRES   REMARKS
TEXARKANA        N/A     41  39  93 CALM        N/A
LINDEN           N/A     43  39  87 CALM        N/A
CADDO LAKE       N/A     36  34  93 CALM        N/A
HENDERSON        N/A     39  36  87 CALM        N/A
LUFKIN           N/A     45  41  87 MISG        N/A
N SABINE NF      N/A     39  36  87 MISG        N/A
$$

SUPPLEMENTAL OBSERVATIONS ARE A COLLECTION OF AUTOMATED INSTRUMENTS
THAT ARE MAINTAINED BY A VARIETY OF FEDERAL AND STATE AGENCIES.
CERTAIN ELEMENTS...SUCH AS HUMIDITY VALUES AND SUSTAINED WIND
SPEEDS...MAY BE APPROXIMATED.